| time (UTC) | temp F | wind direction | speed knots | gust knots | rain 1hr in | rain 24hr in | rain mn in | humidity % | barometer mb |
| 20260506080543 | 65 | 0 | 0.9 | 6.1 | 0.00 | 0.00 | 0.00 | 65 | 1008.8 |
| 20260506073058 | 66 | 178 | 1.7 | 6.1 | 0.00 | 0.00 | 0.00 | 62 | 1008.7 |
| 20260506072544 | 66 | 196 | 0.9 | 5.2 | 0.00 | 0.00 | 0.00 | 62 | 1008.8 |
| 20260506072045 | 66 | 64 | 0.9 | 5.2 | 0.00 | 0.00 | 0.00 | 62 | 1008.8 |
| 20260506071611 | 66 | 165 | 1.7 | 5.2 | 0.00 | 0.00 | 0.00 | 61 | 1008.8 |
| 20260506071042 | 66 | 191 | 0.9 | 4.3 | 0.00 | 0.00 | 0.00 | 61 | 1008.8 |
| 20260506070543 | 66 | 188 | 1.7 | 5.2 | 0.00 | 0.00 | 0.00 | 61 | 1008.8 |
| 20260506062042 | 67 | 0 | 0.0 | 2.6 | 0.00 | 0.00 | 0.00 | 59 | 1009.4 |
| 20260506061551 | 67 | 143 | 0.9 | 3.5 | 0.00 | 0.00 | 0.00 | 59 | 1009.5 |
| 20260506061044 | 67 | 0 | 0.0 | 3.5 | 0.00 | 0.00 | 0.00 | 59 | 1009.5 |
| 20260506060546 | 67 | 143 | 0.9 | 3.5 | 0.00 | 0.00 | 0.00 | 58 | 1009.5 |
| 20260506051043 | 67 | 84 | 0.9 | 2.6 | 0.00 | 0.00 | 0.00 | 56 | 1010.0 |
| 20260506050543 | 67 | 331 | 0.0 | 2.6 | 0.00 | 0.00 | 0.00 | 55 | 1010.1 |
| 20260506045044 | 68 | 0 | 0.0 | 2.6 | 0.00 | 0.00 | 0.00 | 54 | 1010.1 |
| 20260506044555 | 68 | 0 | 0.0 | 3.5 | 0.00 | 0.00 | 0.00 | 53 | 1010.1 |
| 20260506044043 | 68 | 0 | 0.9 | 3.5 | 0.00 | 0.00 | 0.00 | 52 | 1010.0 |
| 20260506043547 | 68 | 331 | 0.0 | 2.6 | 0.00 | 0.00 | 0.00 | 52 | 1010.1 |
| 20260506043050 | 68 | 332 | 0.0 | 2.6 | 0.00 | 0.00 | 0.00 | 52 | 1010.0 |
| 20260506042543 | 68 | 0 | 0.0 | 2.6 | 0.00 | 0.00 | 0.00 | 51 | 1010.1 |
| 20260506042042 | 68 | 0 | 0.0 | 2.6 | 0.00 | 0.00 | 0.00 | 51 | 1010.1 |
| 20260506041559 | 68 | 0 | 0.0 | 2.6 | 0.00 | 0.00 | 0.00 | 50 | 1010.0 |
| 20260506041044 | 68 | 0 | 0.0 | 1.7 | 0.00 | 0.00 | 0.00 | 50 | 1010.1 |
| 20260506040545 | 68 | 0 | 0.0 | 1.7 | 0.00 | 0.00 | 0.00 | 49 | 1010.0 |
| 20260506040050 | 68 | 0 | 0.0 | 2.6 | 0.00 | 0.00 | 0.00 | 49 | 1010.0 |
| 20260506035547 | 69 | 0 | 0.0 | 3.5 | 0.00 | 0.00 | 0.00 | 50 | 1010.0 |
| 20260506035047 | 69 | 0 | 0.0 | 3.5 | 0.00 | 0.00 | 0.00 | 49 | 1010.0 |
| 20260506034554 | 69 | 0 | 0.0 | 3.5 | 0.00 | 0.00 | 0.00 | 48 | 1009.9 |
| 20260506034044 | 69 | 0 | 0.0 | 3.5 | 0.00 | 0.00 | 0.00 | 47 | 1010.0 |
| 20260506033547 | 69 | 0 | 0.0 | 3.5 | 0.00 | 0.00 | 0.00 | 48 | 1010.0 |
| 20260506033052 | 69 | 0 | 0.0 | 3.5 | 0.00 | 0.00 | 0.00 | 47 | 1010.0 |
| 20260506032543 | 69 | 161 | 0.0 | 1.7 | 0.00 | 0.00 | 0.00 | 47 | 1009.9 |
| 20260506032043 | 69 | 0 | 0.0 | 1.7 | 0.00 | 0.00 | 0.00 | 48 | 1009.8 |
| 20260506031555 | 69 | 161 | 0.0 | 1.7 | 0.00 | 0.00 | 0.00 | 48 | 1009.8 |
| 20260506031043 | 69 | 0 | 0.0 | 1.7 | 0.00 | 0.00 | 0.00 | 48 | 1009.8 |
| 20260506030542 | 69 | 161 | 0.0 | 1.7 | 0.00 | 0.00 | 0.00 | 47 | 1009.8 |
| 20260506030051 | 69 | 0 | 0.0 | 1.7 | 0.00 | 0.00 | 0.00 | 49 | 1009.8 |
| 20260506025546 | 69 | 0 | 0.0 | 1.7 | 0.00 | 0.00 | 0.00 | 48 | 1009.9 |
| 20260506025045 | 69 | 161 | 0.0 | 3.5 | 0.00 | 0.00 | 0.00 | 48 | 1009.9 |
| 20260506024550 | 69 | 0 | 0.0 | 3.5 | 0.00 | 0.00 | 0.00 | 46 | 1010.0 |
| 20260506024043 | 69 | 0 | 0.0 | 1.7 | 0.00 | 0.00 | 0.00 | 47 | 1009.9 |
| 20260506023542 | 69 | 0 | 0.0 | 1.7 | 0.00 | 0.00 | 0.00 | 46 | 1009.9 |
| 20260506023051 | 70 | 0 | 0.0 | 2.6 | 0.00 | 0.00 | 0.00 | 46 | 1009.8 |
| 20260506022542 | 70 | 0 | 0.0 | 3.5 | 0.00 | 0.00 | 0.00 | 45 | 1010.0 |
| 20260506022043 | 70 | 0 | 0.0 | 3.5 | 0.00 | 0.00 | 0.00 | 45 | 1009.9 |
| 20260506021553 | 70 | 0 | 0.0 | 3.5 | 0.00 | 0.00 | 0.00 | 45 | 1009.9 |
| 20260506021045 | 70 | 0 | 0.0 | 1.7 | 0.00 | 0.00 | 0.00 | 45 | 1010.0 |
| 20260506020542 | 70 | 161 | 0.0 | 1.7 | 0.00 | 0.00 | 0.00 | 44 | 1010.0 |
| 20260506020048 | 70 | 0 | 0.0 | 3.5 | 0.00 | 0.00 | 0.00 | 43 | 1009.9 |
| 20260506015543 | 70 | 0 | 0.0 | 3.5 | 0.00 | 0.00 | 0.00 | 42 | 1009.9 |
| 20260506015042 | 71 | 0 | 0.0 | 1.7 | 0.00 | 0.00 | 0.00 | 43 | 1009.7 |
| 20260506014558 | 71 | 0 | 0.0 | 2.6 | 0.00 | 0.00 | 0.00 | 42 | 1009.7 |
| 20260506014044 | 71 | 161 | 0.0 | 3.5 | 0.00 | 0.00 | 0.00 | 40 | 1009.7 |
| 20260506013542 | 71 | 0 | 0.9 | 3.5 | 0.00 | 0.00 | 0.00 | 39 | 1009.6 |
| 20260506013055 | 72 | 161 | 0.0 | 4.3 | 0.00 | 0.00 | 0.00 | 39 | 1009.6 |
| 20260506012545 | 72 | 160 | 0.0 | 4.3 | 0.00 | 0.00 | 0.00 | 38 | 1009.5 |
| 20260506012043 | 72 | 160 | 0.0 | 5.2 | 0.00 | 0.00 | 0.00 | 38 | 1009.5 |
| 20260506011551 | 72 | 0 | 0.9 | 5.2 | 0.00 | 0.00 | 0.00 | 37 | 1009.4 |
| 20260506011042 | 72 | 181 | 0.9 | 3.5 | 0.00 | 0.00 | 0.00 | 37 | 1009.4 |
| 20260506010545 | 72 | 181 | 0.0 | 3.5 | 0.00 | 0.00 | 0.00 | 37 | 1009.3 |
| 20260506010057 | 72 | 181 | 0.9 | 2.6 | 0.00 | 0.00 | 0.00 | 37 | 1009.2 |
| 20260506005542 | 72 | 181 | 0.9 | 2.6 | 0.00 | 0.00 | 0.00 | 37 | 1009.2 |
| 20260506005042 | 73 | 0 | 0.0 | 2.6 | 0.00 | 0.00 | 0.00 | 37 | 1009.2 |
| 20260506004556 | 73 | 0 | 0.9 | 3.5 | 0.00 | 0.00 | 0.00 | 36 | 1009.2 |
| 20260506004042 | 73 | 181 | 0.9 | 3.5 | 0.00 | 0.00 | 0.00 | 36 | 1009.1 |
| 20260506003543 | 73 | 182 | 1.7 | 3.5 | 0.00 | 0.00 | 0.00 | 36 | 1008.9 |
| 20260506003050 | 73 | 0 | 0.9 | 3.5 | 0.00 | 0.00 | 0.00 | 37 | 1008.9 |
| 20260506002545 | 73 | 180 | 0.9 | 3.5 | 0.00 | 0.00 | 0.00 | 37 | 1009.0 |
| 20260506002042 | 73 | 0 | 0.9 | 3.5 | 0.00 | 0.00 | 0.00 | 37 | 1008.9 |
| 20260506001609 | 74 | 161 | 0.0 | 3.5 | 0.00 | 0.00 | 0.00 | 36 | 1008.8 |
| 20260506001042 | 74 | 161 | 0.9 | 3.5 | 0.00 | 0.00 | 0.00 | 36 | 1008.8 |
| 20260506000542 | 74 | 161 | 0.0 | 3.5 | 0.00 | 0.00 | 0.00 | 37 | 1008.7 |
| 20260506000051 | 74 | 161 | 0.0 | 4.3 | 0.00 | 0.00 | 0.00 | 37 | 1008.6 |
| 20260505235543 | 75 | 161 | 0.9 | 4.3 | 0.00 | 0.00 | 0.00 | 36 | 1008.5 |
| 20260505235046 | 75 | 161 | 0.9 | 4.3 | 0.00 | 0.00 | 0.00 | 37 | 1008.5 |
| 20260505234551 | 75 | 161 | 0.9 | 4.3 | 0.00 | 0.00 | 0.00 | 36 | 1008.6 |
| 20260505234043 | 76 | 161 | 0.9 | 3.5 | 0.00 | 0.00 | 0.00 | 37 | 1008.4 |
| 20260505233546 | 76 | 184 | 0.9 | 7.0 | 0.00 | 0.00 | 0.00 | 36 | 1008.5 |
| 20260505233055 | 76 | 184 | 0.9 | 7.0 | 0.00 | 0.00 | 0.00 | 36 | 1008.5 |
| 20260505232543 | 76 | 165 | 0.9 | 5.2 | 0.00 | 0.00 | 0.00 | 36 | 1008.5 |
| 20260505232043 | 77 | 157 | 0.9 | 5.2 | 0.00 | 0.00 | 0.00 | 34 | 1008.6 |
| 20260505231555 | 77 | 204 | 1.7 | 5.2 | 0.00 | 0.00 | 0.00 | 35 | 1008.5 |
| 20260505231046 | 77 | 164 | 0.9 | 6.1 | 0.00 | 0.00 | 0.00 | 35 | 1008.5 |
| 20260505230544 | 77 | 169 | 1.7 | 7.0 | 0.00 | 0.00 | 0.00 | 35 | 1008.4 |
| 20260505225542 | 78 | 183 | 1.7 | 7.0 | 0.00 | 0.00 | 0.00 | 34 | 1008.4 |
| 20260505225043 | 78 | 170 | 2.6 | 7.8 | 0.00 | 0.00 | 0.00 | 34 | 1008.4 |
| 20260505224556 | 78 | 211 | 2.6 | 7.8 | 0.00 | 0.00 | 0.00 | 34 | 1008.4 |
| 20260505224042 | 78 | 169 | 1.7 | 5.2 | 0.00 | 0.00 | 0.00 | 35 | 1008.5 |
| 20260505223542 | 78 | 159 | 1.7 | 6.1 | 0.00 | 0.00 | 0.00 | 35 | 1008.4 |
| 20260505223059 | 77 | 205 | 1.7 | 8.7 | 0.00 | 0.00 | 0.00 | 35 | 1008.5 |
| 20260505222542 | 77 | 178 | 2.6 | 8.7 | 0.00 | 0.00 | 0.00 | 35 | 1008.6 |
| 20260505222045 | 78 | 211 | 1.7 | 6.1 | 0.00 | 0.00 | 0.00 | 36 | 1008.6 |
| 20260505221600 | 78 | 197 | 1.7 | 7.8 | 0.00 | 0.00 | 0.00 | 34 | 1008.4 |
| 20260505221044 | 78 | 145 | 2.6 | 7.8 | 0.00 | 0.00 | 0.00 | 34 | 1008.6 |
| 20260505220547 | 78 | 165 | 1.7 | 6.1 | 0.00 | 0.00 | 0.00 | 34 | 1008.6 |
| 20260505220056 | 78 | 168 | 1.7 | 6.1 | 0.00 | 0.00 | 0.00 | 35 | 1008.7 |
| 20260505215542 | 78 | 191 | 2.6 | 6.1 | 0.00 | 0.00 | 0.00 | 34 | 1008.5 |
| 20260505215045 | 78 | 157 | 2.6 | 6.1 | 0.00 | 0.00 | 0.00 | 35 | 1008.6 |
| 20260505214605 | 78 | 159 | 1.7 | 6.1 | 0.00 | 0.00 | 0.00 | 36 | 1008.6 |
| 20260505214042 | 78 | 137 | 1.7 | 6.1 | 0.00 | 0.00 | 0.00 | 36 | 1008.6 |
| 20260505213542 | 78 | 115 | 2.6 | 6.1 | 0.00 | 0.00 | 0.00 | 35 | 1008.5 |
| 20260505213100 | 78 | 188 | 0.9 | 6.1 | 0.00 | 0.00 | 0.00 | 37 | 1008.3 |
| 20260505212545 | 78 | 180 | 1.7 | 9.6 | 0.00 | 0.00 | 0.00 | 36 | 1008.5 |
| 20260505212042 | 79 | 161 | 3.5 | 9.6 | 0.00 | 0.00 | 0.00 | 34 | 1008.5 |
| 20260505211553 | 79 | 167 | 2.6 | 9.6 | 0.00 | 0.00 | 0.00 | 35 | 1008.4 |
| 20260505211046 | 80 | 178 | 3.5 | 7.8 | 0.00 | 0.00 | 0.00 | 34 | 1008.3 |
| 20260505210541 | 80 | 178 | 2.6 | 7.8 | 0.00 | 0.00 | 0.00 | 35 | 1008.3 |
| 20260505210105 | 80 | 159 | 2.6 | 7.8 | 0.00 | 0.00 | 0.00 | 35 | 1008.4 |
| 20260505205542 | 80 | 146 | 2.6 | 6.1 | 0.00 | 0.00 | 0.00 | 35 | 1008.4 |
| 20260505205041 | 81 | 179 | 1.7 | 6.1 | 0.00 | 0.00 | 0.00 | 38 | 1008.3 |
| 20260505204558 | 81 | 194 | 2.6 | 8.7 | 0.00 | 0.00 | 0.00 | 36 | 1008.3 |
| 20260505204042 | 81 | 178 | 3.5 | 8.7 | 0.00 | 0.00 | 0.00 | 36 | 1008.3 |
| 20260505203541 | 81 | 161 | 3.5 | 7.0 | 0.00 | 0.00 | 0.00 | 37 | 1008.2 |
| 20260505203053 | 81 | 153 | 2.6 | 7.8 | 0.00 | 0.00 | 0.00 | 37 | 1008.2 |
| 20260505202542 | 81 | 191 | 2.6 | 8.7 | 0.00 | 0.00 | 0.00 | 36 | 1008.2 |
| 20260505202051 | 81 | 173 | 2.6 | 9.6 | 0.00 | 0.00 | 0.00 | 36 | 1008.3 |
| 20260505201601 | 81 | 171 | 3.5 | 9.6 | 0.00 | 0.00 | 0.00 | 36 | 1008.3 |
| 20260505201042 | 80 | 175 | 2.6 | 7.0 | 0.00 | 0.00 | 0.00 | 38 | 1008.2 |
| 20260505200545 | 80 | 163 | 1.7 | 7.8 | 0.00 | 0.00 | 0.00 | 37 | 1008.2 |
| 20260505200050 | 80 | 178 | 2.6 | 7.8 | 0.00 | 0.00 | 0.00 | 36 | 1008.3 |
| 20260505195545 | 80 | 196 | 2.6 | 8.7 | 0.00 | 0.00 | 0.00 | 37 | 1008.3 |
| 20260505195046 | 81 | 179 | 1.7 | 9.6 | 0.00 | 0.00 | 0.00 | 39 | 1008.5 |
| 20260505194549 | 81 | 186 | 2.6 | 9.6 | 0.00 | 0.00 | 0.00 | 35 | 1008.5 |
| 20260505194045 | 81 | 180 | 1.7 | 8.7 | 0.00 | 0.00 | 0.00 | 38 | 1008.6 |
| 20260505193548 | 81 | 159 | 3.5 | 8.7 | 0.00 | 0.00 | 0.00 | 36 | 1008.7 |
| 20260505193054 | 81 | 155 | 3.5 | 7.0 | 0.00 | 0.00 | 0.00 | 38 | 1008.7 |
| 20260505192546 | 81 | 192 | 2.6 | 6.1 | 0.00 | 0.00 | 0.00 | 40 | 1008.8 |
| 20260505192044 | 80 | 226 | 2.6 | 7.8 | 0.00 | 0.00 | 0.00 | 37 | 1008.9 |
| 20260505191558 | 81 | 153 | 3.5 | 7.8 | 0.00 | 0.00 | 0.00 | 38 | 1008.8 |
| 20260505191042 | 81 | 159 | 1.7 | 6.1 | 0.00 | 0.00 | 0.00 | 40 | 1009.0 |
| 20260505190541 | 81 | 163 | 2.6 | 7.0 | 0.00 | 0.00 | 0.00 | 39 | 1009.1 |
| 20260505190104 | 81 | 194 | 2.6 | 7.0 | 0.00 | 0.00 | 0.00 | 38 | 1009.1 |
| 20260505185544 | 81 | 152 | 2.6 | 6.1 | 0.00 | 0.00 | 0.00 | 39 | 1009.3 |
| 20260505185046 | 81 | 154 | 2.6 | 6.1 | 0.00 | 0.00 | 0.00 | 37 | 1009.3 |
| 20260505184604 | 81 | 168 | 1.7 | 7.0 | 0.00 | 0.00 | 0.00 | 38 | 1009.4 |
| 20260505184042 | 81 | 0 | 2.6 | 7.8 | 0.00 | 0.00 | 0.00 | 37 | 1009.4 |
| 20260505183545 | 80 | 197 | 2.6 | 7.8 | 0.00 | 0.00 | 0.00 | 38 | 1009.5 |
| 20260505183056 | 80 | 227 | 0.9 | 7.0 | 0.00 | 0.00 | 0.00 | 41 | 1009.6 |
| 20260505182545 | 80 | 169 | 2.6 | 7.0 | 0.00 | 0.00 | 0.00 | 39 | 1009.7 |
| 20260505182045 | 80 | 173 | 1.7 | 7.0 | 0.00 | 0.00 | 0.00 | 39 | 1009.7 |
| 20260505181559 | 80 | 193 | 1.7 | 7.0 | 0.00 | 0.00 | 0.00 | 39 | 1009.8 |
| 20260505181048 | 80 | 165 | 3.5 | 7.0 | 0.00 | 0.00 | 0.00 | 39 | 1009.9 |
| 20260505180544 | 79 | 184 | 2.6 | 6.1 | 0.00 | 0.00 | 0.00 | 38 | 1009.9 |
| 20260505180053 | 79 | 159 | 1.7 | 7.8 | 0.00 | 0.00 | 0.00 | 41 | 1010.0 |
| 20260505175542 | 79 | 194 | 2.6 | 11.3 | 0.00 | 0.00 | 0.00 | 39 | 1010.2 |
| 20260505175042 | 79 | 167 | 2.6 | 11.3 | 0.00 | 0.00 | 0.00 | 41 | 1010.1 |
| 20260505174550 | 79 | 176 | 2.6 | 11.3 | 0.00 | 0.00 | 0.00 | 40 | 1010.3 |
| 20260505174046 | 79 | 147 | 1.7 | 7.0 | 0.00 | 0.00 | 0.00 | 41 | 1010.3 |
| 20260505173546 | 79 | 189 | 0.9 | 7.0 | 0.00 | 0.00 | 0.00 | 41 | 1010.2 |
| 20260505173052 | 79 | 200 | 0.9 | 6.1 | 0.00 | 0.00 | 0.00 | 41 | 1010.2 |
| 20260505172547 | 78 | 188 | 2.6 | 6.1 | 0.00 | 0.00 | 0.00 | 43 | 1010.3 |
| 20260505172045 | 78 | 148 | 1.7 | 5.2 | 0.00 | 0.00 | 0.00 | 41 | 1010.3 |
| 20260505171551 | 79 | 174 | 1.7 | 6.1 | 0.00 | 0.00 | 0.00 | 40 | 1010.3 |
| 20260505171046 | 79 | 160 | 2.6 | 6.1 | 0.00 | 0.00 | 0.00 | 40 | 1010.4 |
| 20260505170545 | 79 | 159 | 2.6 | 6.1 | 0.00 | 0.00 | 0.00 | 42 | 1010.4 |
| 20260505170059 | 79 | 225 | 0.9 | 3.5 | 0.00 | 0.00 | 0.00 | 43 | 1010.5 |
| 20260505165542 | 78 | 200 | 0.9 | 6.1 | 0.00 | 0.00 | 0.00 | 41 | 1010.6 |
| 20260505165045 | 78 | 178 | 2.6 | 6.1 | 0.00 | 0.00 | 0.00 | 41 | 1010.8 |
| 20260505164551 | 78 | 173 | 1.7 | 7.0 | 0.00 | 0.00 | 0.00 | 41 | 1010.9 |
| 20260505164045 | 78 | 167 | 1.7 | 7.0 | 0.00 | 0.00 | 0.00 | 42 | 1010.9 |
| 20260505163544 | 78 | 157 | 1.7 | 6.1 | 0.00 | 0.00 | 0.00 | 42 | 1011.1 |
| 20260505163055 | 77 | 206 | 1.7 | 10.4 | 0.00 | 0.00 | 0.00 | 42 | 1011.1 |
| 20260505162541 | 77 | 248 | 2.6 | 10.4 | 0.00 | 0.00 | 0.00 | 47 | 1011.1 |
| 20260505162045 | 77 | 187 | 1.7 | 6.1 | 0.00 | 0.00 | 0.00 | 44 | 1011.2 |
| 20260505161617 | 77 | 211 | 1.7 | 7.0 | 0.00 | 0.00 | 0.00 | 42 | 1011.4 |
| 20260505161041 | 77 | 202 | 1.7 | 7.8 | 0.00 | 0.00 | 0.00 | 42 | 1011.4 |
| 20260505160547 | 76 | 187 | 2.6 | 9.6 | 0.00 | 0.00 | 0.00 | 41 | 1011.5 |
| 20260505153104 | 75 | 250 | 1.7 | 9.6 | 0.00 | 0.00 | 0.00 | 43 | 1011.5 |
| 20260505152542 | 75 | 221 | 1.7 | 9.6 | 0.00 | 0.00 | 0.00 | 48 | 1011.5 |
| 20260505152048 | 75 | 261 | 1.7 | 6.1 | 0.00 | 0.00 | 0.00 | 49 | 1011.6 |
| 20260505151552 | 74 | 223 | 0.9 | 6.1 | 0.00 | 0.00 | 0.00 | 49 | 1011.5 |
| 20260505151042 | 74 | 259 | 1.7 | 6.1 | 0.00 | 0.00 | 0.00 | 52 | 1011.5 |
| 20260505150549 | 74 | 158 | 1.7 | 5.2 | 0.00 | 0.00 | 0.00 | 48 | 1011.5 |
| 20260505150111 | 73 | 211 | 1.7 | 5.2 | 0.00 | 0.00 | 0.00 | 50 | 1011.3 |
| 20260505140545 | 67 | 0 | 0.0 | 2.6 | 0.00 | 0.00 | 0.00 | 64 | 1011.5 |
| 20260505140107 | 66 | 0 | 0.0 | 1.7 | 0.00 | 0.00 | 0.00 | 65 | 1011.5 |
| 20260505124556 | 57 | 0 | 0.0 | 0.0 | 0.00 | 0.00 | 0.00 | 81 | 1012.1 |
| 20260505124040 | 57 | 0 | 0.0 | 0.0 | 0.00 | 0.00 | 0.00 | 82 | 1012.1 |
| 20260505123544 | 57 | 0 | 0.0 | 0.9 | 0.00 | 0.00 | 0.00 | 81 | 1012.2 |
| 20260505123108 | 56 | 0 | 0.0 | 0.9 | 0.00 | 0.00 | 0.00 | 81 | 1012.2 |
| 20260505122543 | 56 | 0 | 0.0 | 0.9 | 0.00 | 0.00 | 0.00 | 80 | 1012.2 |
| 20260505122043 | 56 | 0 | 0.0 | 0.9 | 0.00 | 0.00 | 0.00 | 81 | 1012.2 |
| 20260505121553 | 56 | 0 | 0.0 | 0.9 | 0.00 | 0.00 | 0.00 | 82 | 1012.2 |
| 20260505121044 | 56 | 0 | 0.0 | 0.9 | 0.00 | 0.00 | 0.00 | 81 | 1012.2 |
| 20260505120543 | 55 | 0 | 0.0 | 0.9 | 0.00 | 0.00 | 0.00 | 81 | 1012.1 |
| 20260505120053 | 55 | 0 | 0.0 | 0.9 | 0.00 | 0.00 | 0.00 | 82 | 1012.2 |
| 20260505115541 | 55 | 0 | 0.0 | 0.9 | 0.00 | 0.00 | 0.00 | 81 | 1012.1 |
| 20260505115042 | 55 | 0 | 0.0 | 0.9 | 0.00 | 0.00 | 0.00 | 82 | 1012.1 |
| 20260505114559 | 55 | 0 | 0.0 | 0.0 | 0.00 | 0.00 | 0.00 | 82 | 1012.0 |
| 20260505114041 | 55 | 0 | 0.0 | 0.0 | 0.00 | 0.00 | 0.00 | 81 | 1012.1 |
| 20260505113541 | 55 | 0 | 0.0 | 0.0 | 0.00 | 0.00 | 0.00 | 82 | 1011.9 |
| 20260505113052 | 55 | 0 | 0.0 | 0.9 | 0.00 | 0.00 | 0.00 | 81 | 1011.8 |
| 20260505112541 | 55 | 0 | 0.0 | 0.9 | 0.00 | 0.00 | 0.00 | 81 | 1011.7 |
| 20260505112042 | 55 | 0 | 0.0 | 0.0 | 0.00 | 0.00 | 0.00 | 81 | 1011.6 |
| 20260505111554 | 55 | 0 | 0.0 | 0.0 | 0.00 | 0.00 | 0.00 | 81 | 1011.7 |
| 20260505111043 | 55 | 0 | 0.0 | 0.0 | 0.00 | 0.00 | 0.00 | 81 | 1011.6 |
| 20260505110541 | 55 | 0 | 0.0 | 0.9 | 0.00 | 0.00 | 0.00 | 81 | 1011.4 |
| 20260505102042 | 55 | 0 | 0.0 | 0.0 | 0.00 | 0.00 | 0.00 | 80 | 1011.1 |
| 20260505101554 | 55 | 0 | 0.0 | 0.0 | 0.00 | 0.00 | 0.00 | 80 | 1011.0 |
| 20260505101046 | 55 | 0 | 0.0 | 0.0 | 0.00 | 0.00 | 0.00 | 80 | 1011.0 |
| 20260505100543 | 55 | 0 | 0.0 | 0.0 | 0.00 | 0.00 | 0.00 | 80 | 1011.0 |
| 20260505100049 | 55 | 0 | 0.0 | 0.0 | 0.00 | 0.00 | 0.00 | 79 | 1011.0 |
| 20260505095543 | 55 | 0 | 0.0 | 0.0 | 0.00 | 0.00 | 0.00 | 79 | 1011.0 |
| 20260505095048 | 55 | 0 | 0.0 | 0.0 | 0.00 | 0.00 | 0.00 | 79 | 1011.1 |
| 20260505094557 | 55 | 0 | 0.0 | 0.0 | 0.00 | 0.00 | 0.00 | 79 | 1011.0 |
| 20260505094045 | 55 | 0 | 0.0 | 0.0 | 0.00 | 0.00 | 0.00 | 80 | 1011.0 |
| 20260505093549 | 55 | 0 | 0.0 | 0.0 | 0.00 | 0.00 | 0.00 | 79 | 1011.0 |
| 20260505093056 | 55 | 0 | 0.0 | 0.0 | 0.00 | 0.00 | 0.00 | 79 | 1011.0 |
| 20260505092547 | 56 | 0 | 0.0 | 0.0 | 0.00 | 0.00 | 0.00 | 79 | 1010.9 |
| 20260505092045 | 56 | 0 | 0.0 | 0.0 | 0.00 | 0.00 | 0.00 | 79 | 1010.9 |
| 20260505091551 | 56 | 0 | 0.0 | 0.0 | 0.00 | 0.00 | 0.00 | 79 | 1010.9 |
| 20260505091045 | 56 | 0 | 0.0 | 0.9 | 0.00 | 0.00 | 0.00 | 79 | 1011.0 |
| 20260505090545 | 55 | 0 | 0.0 | 0.9 | 0.00 | 0.00 | 0.00 | 79 | 1011.0 |
| 20260505090106 | 55 | 0 | 0.0 | 0.9 | 0.00 | 0.00 | 0.00 | 79 | 1011.0 |
| 20260505085543 | 55 | 0 | 0.0 | 0.9 | 0.00 | 0.00 | 0.00 | 79 | 1010.9 |
| 20260505085047 | 56 | 0 | 0.0 | 0.0 | 0.00 | 0.00 | 0.00 | 79 | 1010.9 |
| 20260505084551 | 56 | 0 | 0.0 | 0.0 | 0.00 | 0.00 | 0.00 | 78 | 1010.9 |
| 20260505084046 | 56 | 0 | 0.0 | 0.0 | 0.00 | 0.00 | 0.00 | 78 | 1010.8 |
| 20260505083545 | 56 | 0 | 0.0 | 0.0 | 0.00 | 0.00 | 0.00 | 77 | 1010.6 |
| 20260505083107 | 57 | 0 | 0.0 | 0.0 | 0.00 | 0.00 | 0.00 | 77 | 1010.6 |
| 20260505082545 | 57 | 0 | 0.0 | 0.0 | 0.00 | 0.00 | 0.00 | 76 | 1010.6 |
| 20260505082045 | 57 | 0 | 0.0 | 0.0 | 0.00 | 0.00 | 0.00 | 76 | 1010.4 |
| 20260505081555 | 57 | 0 | 0.0 | 0.0 | 0.00 | 0.00 | 0.00 | 75 | 1010.5 |
| 20260505081046 | 57 | 0 | 0.0 | 0.0 | 0.00 | 0.00 | 0.00 | 75 | 1010.4 |